Location: Ceske Budejovice
(48.9830°N, 14.4670°E)
Time: 20:56:04
(UTC+02:00)

ISS - Pass Details

Date: 26 March 2019
Orbit: 408 x 410 km, 51.6° (Epoch: 22 April)

Event Time Altitude Azimuth Distance (km) Brightness Sun altitude
Rises 20:59:41 0° 276° (W) 2,336 1.0 -24.6°
Reaches altitude 10° 21:01:49 10° 282° (WNW) 1,475 -0.2 -24.9°
Enters shadow 21:03:47 31° 300° (WNW) 751 -1.9 -25.1°
